Regional Weather Roundup
Issued by NWS

Home | Current Version | Previous Version | Graphics & Text | Print | Product List | Glossary On
Versions: 1 2 3 4 5 6 7 8 9 10 11 12 13 14 15 16 17 18 19 20 21 22 23 24 25 26 27 28 29 30 31 32 33 34 35 36 37 38 39 40 41 42 43 44 45 46 47 48 49 50
927
ASUS43 KDMX 251501
RWRIA

WEATHER ROUNDUP FOR IOWA
NATIONAL WEATHER SERVICE DES MOINES IA
1000 AM CDT MON SEP 25 2017

NOTE: "FAIR" INDICATES FEW OR NO CLOUDS BELOW 12,000 FEET WITH NO
SIGNIFICANT WEATHER AND/OR OBSTRUCTIONS TO VISIBILITY.

* - THESE STATIONS ARE NOT NWS STATIONS...THUS NOT UNDER NWS
QUALITY CONTROL.  THEY ALSO DO NOT REPORT WEATHER SUCH
AS PRECIPITATION OR FOG.

IAZ001>003-012>014-020>022-031>034-043>046-251600-
   NORTHWEST IOWA

CITY           SKY/WX    TMP DP  RH WIND       PRES   REMARKS
CARROLL *      CLOUDY    66  66 100 N6        29.98R FOG
CHEROKEE *     HVY RAIN  56  56 100 NE9       29.98F
DENISON *      LGT RAIN  63  63 100 E10       29.98F
LE MARS *      CLOUDY    55  55 100 N8        30.01R
ORANGE CITY *  CLOUDY    55  55 100 NE5       30.01R
SHELDON *      CLOUDY    55  54  94 NE7G14    30.01R
SIOUX CITY     LGT RAIN  58  57  97 N8        29.99R
SPENCER        LGT RAIN  55  53  93 N9        30.02R
STORM LAKE *   CLOUDY    59  57  94 E8        29.99R
$$

IAZ055>058-069>071-079>083-090>094-251600-
   SOUTHWEST IOWA

CITY           SKY/WX    TMP DP  RH WIND       PRES   REMARKS
ATLANTIC *     CLOUDY    66  64  94 N9        29.96R
AUDUBON *      CLOUDY    64  63  94 NW6       30.00R FOG
CLARINDA *     SUNNY     75  68  78 SE5       29.95F
COUNCIL BLFS * CLOUDY    63  63 100 NE12      29.95S FOG
CRESTON *      SUNNY     75  66  73 NE5       29.96F
HARLAN  *      CLOUDY    66  64  94 NE12G18   29.99F
LAMONI         SUNNY     74  66  76 SE5       29.95F
RED OAK *      CLOUDY    70  68  94 N7        29.95R
SHENANDOAH *   CLOUDY    70  66  88 CALM      29.95R
$$

IAZ047>049-059>061-072>074-084-251600-
   CENTRAL IOWA

CITY           SKY/WX    TMP DP  RH WIND       PRES   REMARKS
AMES           SUNNY     74  66  76 CALM      29.95F
ANKENY *       LGT RAIN  73  66  78 CALM      29.96F
BOONE *        SUNNY     72  66  83 E7        29.94F
CHARITON *     SUNNY     75  66  73 S6        29.96S
DES MOINES     MOSUNNY   74  65  73 CALM      29.94F
GRINNELL*      MOSUNNY   74  65  74 S5        29.97F
KNOXVILLE *    SUNNY     75  64  69 CALM      29.95S
MARSHALLTOWN   MOSUNNY   73  67  81 W3        29.96R
NEWTON *       SUNNY     75  66  73 CALM      29.96S
PELLA *        SUNNY     76  65  68 S5        29.97F
PERRY *          N/A     72  69  90 NW5       29.97R
$$

IAZ004>006-015-016-023>025-035-036-251600-
   NORTH CENTRAL IOWA

CITY           SKY/WX    TMP DP  RH WIND       PRES   REMARKS
ALGONA *       PTSUNNY   59  59 100 N9        29.99F
CLARION *      CLOUDY    66  66 100 NW9       29.98R
ESTHERVILLE    LGT RAIN  54  54 100 NE12      29.99F
FORT DODGE *   RAIN      61  60  97 NE6       29.98F
MASON CITY     CLOUDY    66  63  90 N8        29.98F
FOREST CITY *  CLOUDY    63  61  94 NW7       29.99R
WEBSTER CITY * CLOUDY    66  64  94 N10       29.96R FOG
IOWA FALLS *     N/A     70  65  86 N3        29.97S
$$

IAZ007>011-017>019-026>030-037>042-050>054-066-251600-
   NORTHEAST IOWA

CITY           SKY/WX    TMP DP  RH WIND       PRES   REMARKS
CEDAR RAPIDS   SUNNY     78  65  63 VRB6      29.96F HX  80
CHARLES CITY * MOSUNNY   72  64  78 W3        29.97R
CLINTON *      SUNNY    N/A N/A N/A S3        30.00S
DECORAH *      MOSUNNY   73  64  73 S5        29.96F
DUBUQUE        SUNNY     79  64  60 S6        29.99F HX  81
MONTICELLO *   MOSUNNY   79  64  61 CALM      29.97F HX  81
OELWEIN *      MOSUNNY   77  66  69 S6        29.97F
WATERLOO       PTSUNNY   75  63  66 SE7       29.93F
$$

IAZ064-065-067-068-078-251600-
   EAST CENTRAL IOWA

CITY           SKY/WX    TMP DP  RH WIND       PRES   REMARKS
DAVENPORT      SUNNY     78  65  63 VRB3      30.00F HX  80
IOWA CITY      SUNNY     77  66  68 SW3       29.98F
MUSCATINE *    SUNNY     75  66  73 VRB3      29.98S
QUAD CITIES    SUNNY     78  65  63 S5        29.98S HX  80
$$

IAZ062-063-075>077-085>089-095>099-251600-
   SOUTHEAST IOWA

CITY           SKY/WX    TMP DP  RH WIND       PRES   REMARKS
BURLINGTON     SUNNY     78  68  71 S5        29.98S HX  80
FAIRFIELD *    MOSUNNY   79  63  57 S6        29.96F HX  80
FORT MADISON * SUNNY     81  66  61 S5        29.99S HX  83
KEOKUK *       SUNNY     79  66  65 VRB6      29.98S HX  81
OSKALOOSA *      N/A     79  64  59 SW5       29.97S HX  81
OTTUMWA        CLOUDY    76  65  68 CALM      29.96F
WASHINGTON *   SUNNY     79  64  61 SW6       29.98F HX  81
$$

ABBREVIATIONS USED IN REMARKS
   TC - TEMPERATURES IN CELSIUS
  WCI - WIND CHILL INDEX
   HX - HEAT INDEX
  VSB - VISIBILITY
$$





USA.gov is the U.S. government's official web portal to all federal, state and local government web resources and services.